[[[{"header":{"parameterUnit":"kt","parameterCategory":2,"dx":1,"dy":1,"la1":30.253999710083008,"la2":30.299108505249023,"lo1":-89.0895004272461,"lo2":-89.04439544677734,"nx":28,"ny":28,"refTime":"2022-10-10T21:00:00:Z","depth":0,"parameterNumber":1,"parameterNumberName":"U-component_of_WINDS"},"data":[-2.7093,-2.715,-2.7208,-2.73,-2.7369,-2.7443,-2.7488,-2.7553,-2.7621,-2.7718,-2.7784,-2.7852,-2.7944,-2.804,-2.8117,-2.8146,-2.8173,-2.815,-2.8187,-2.8237,-2.8248,-2.8258,-2.8247,-2.8155,-2.8155,-2.8126,-2.8126,-2.8126,-2.7122,-2.7189,-2.7255,-2.7359,-2.7417,-2.7475,-2.7563,-2.7608,-2.7673,-2.7758,-2.7827,-2.7918,-2.7999,-2.8103,-2.8191,-2.8221,-2.8254,-2.8241,-2.8238,-2.8252,-2.8308,-2.8295,-2.8212,-2.8212,-2.8212,-2.8212,-2.8212,-2.8213,-2.719,-2.7222,-2.7319,-2.7393,-2.7462,-2.7531,-2.7573,-2.7654,-2.7722,-2.7819,-2.7879,-2.7956,-2.8053,-2.8191,-2.8253,-2.8315,-2.8341,-2.8346,-2.8347,-2.8346,-2.8335,-2.8365,-2.8334,-2.8334,-2.8335,-2.8335,-2.8335,0,-2.7258,-2.7304,-2.7373,-2.7458,-2.7515,-2.7588,-2.7666,-2.7694,-2.7817,-2.7868,-2.7947,-2.8003,-2.8115,-2.8197,-2.8295,-2.836,-2.8426,-2.8441,-2.8444,-2.8413,-2.8373,-2.8393,-2.848,-2.8441,-2.8442,-2.8443,-2.8443,-2.8444,-2.7329,-2.736,-2.7492,-2.7532,-2.7589,-2.7653,-2.7704,-2.781,-2.786,-2.7972,-2.7997,-2.8081,-2.8154,-2.8273,-2.8371,-2.8455,-2.8488,-2.8466,-2.8502,-2.8471,-2.8486,-2.8482,-2.8485,-2.8456,-2.8455,-2.8453,-2.8452,0,-2.7363,-2.746,-2.7529,-2.7658,-2.7691,-2.772,-2.7831,-2.7869,-2.7945,-2.8009,-2.803,-2.815,-2.8227,-2.8329,-2.844,-2.8491,-2.854,-2.8571,-2.8506,-2.8517,-2.8506,-2.8505,-2.8458,-2.8456,-2.8555,-2.8554,-2.8553,0,-2.7461,-2.7499,-2.7643,-2.7678,-2.7724,-2.783,-2.7874,-2.7944,-2.803,-2.8081,-2.8173,-2.8219,-2.8343,-2.8405,-2.8481,-2.854,-2.8561,-2.8603,-2.8622,-2.8594,-2.8588,-2.8621,-2.8624,-2.8668,-2.8668,-2.8668,-2.8668,0,-2.7502,-2.7626,-2.7683,-2.7727,-2.787,-2.7895,-2.7955,-2.8053,-2.8103,-2.8184,-2.8217,-2.8305,-2.8352,-2.8419,-2.8515,-2.8534,-2.859,-2.8638,-2.8633,-2.863,-2.8638,-2.8636,-2.8571,-2.8668,-2.8668,-2.8668,-2.8668,0,-2.7596,-2.7674,-2.7744,-2.7865,-2.7893,-2.7932,-2.8024,-2.8081,-2.8178,-2.8228,-2.8293,-2.8367,-2.8428,-2.8467,-2.8553,-2.8551,-2.8593,-2.864,-2.8642,-2.8651,-2.8691,-2.8638,-2.8567,-2.8562,-2.8663,-2.8663,-2.8663,0,-2.7615,-2.7713,-2.7804,-2.7869,-2.7928,-2.8026,-2.8073,-2.8155,-2.8226,-2.8287,-2.8366,-2.8436,-2.8487,-2.8523,-2.8553,-2.8637,-2.8639,-2.864,-2.8727,-2.8729,-2.8695,-2.8632,-2.8594,-2.8572,-2.8664,-2.8664,-2.8663,0,-2.7642,-2.7815,-2.782,-2.7874,-2.8001,-2.8052,-2.8105,-2.8197,-2.8232,-2.8317,-2.8364,-2.8466,-2.8508,-2.8567,-2.8637,-2.8662,-2.8641,-2.8704,-2.8708,-2.8688,-2.8674,-2.8637,-2.8633,-2.8682,-2.8682,-2.8682,-2.8664,0,-2.7758,-2.7821,-2.784,-2.7958,-2.8013,-2.8061,-2.8169,-2.8213,-2.8274,-2.8347,-2.8419,-2.8516,-2.8612,-2.8635,-2.8696,-2.8721,-2.8732,-2.8777,-2.8821,-2.8779,-2.8776,-2.8775,-2.8817,-2.8819,-2.8821,-2.8822,0,0,-2.7751,-2.7843,-2.7943,-2.7998,-2.8051,-2.8153,-2.8194,-2.8258,-2.8384,-2.8419,-2.8445,-2.8601,-2.8679,-2.8755,-2.8751,-2.879,-2.8804,-2.8815,-2.8799,-2.8796,-2.8793,-2.8788,-2.8785,-2.8825,-2.8826,-2.8827,-2.8827,0,-2.7815,-2.7891,-2.793,-2.8,-2.8108,-2.8184,-2.8193,-2.8319,-2.8368,-2.844,-2.8524,-2.8581,-2.8704,-2.8774,-2.8826,-2.8809,-2.8869,-2.8831,-2.8783,-2.8812,-2.8806,-2.8802,-2.8795,-2.8791,-2.8831,-2.8831,-2.8831,0,-2.786,-2.7951,-2.7982,-2.8108,-2.818,-2.8239,-2.8312,-2.8373,-2.8418,-2.8528,-2.8598,-2.8667,-2.8771,-2.883,-2.886,-2.8885,-2.8921,-2.893,-2.8923,-2.8928,-2.8961,-2.8955,-2.8949,-2.9025,-2.9025,-2.9025,0,0,-2.79,-2.796,-2.8092,-2.813,-2.8169,-2.8283,-2.8327,-2.8392,-2.8483,-2.8519,-2.8608,-2.8694,-2.8767,-2.8813,-2.8887,-2.8937,-2.8967,-2.8949,-2.894,-2.8933,-2.8933,-2.8964,-2.8957,-2.9026,-2.9026,-2.9026,0,0,-2.7921,-2.8075,-2.812,-2.8177,-2.826,-2.8394,-2.8413,-2.8472,-2.855,-2.8556,-2.8671,-2.8699,-2.8756,-2.8821,-2.8819,-2.8905,-2.8947,-2.895,-2.886,-2.885,-2.8842,-2.8824,-2.8907,0,0,0,0,0,-2.8042,-2.8056,-2.8095,-2.8121,-2.8281,-2.8372,-2.8393,-2.8487,-2.8514,-2.8527,-2.8611,-2.8674,-2.8843,-2.8844,-2.8868,-2.8869,-2.9036,-2.9035,-2.9033,-2.893,-2.8918,-2.8908,0,0,0,0,0,0,-2.8053,-2.8084,-2.8095,-2.8227,-2.8265,-2.8372,-2.8439,-2.8465,-2.8515,-2.8526,-2.8655,-2.8678,-2.876,-2.8838,-2.8858,-2.8857,-2.8901,-2.9036,-2.9034,-2.9033,-2.8926,-2.8916,-2.8908,0,0,0,0,0,-2.8062,-2.8087,-2.832,-2.8228,-2.826,-2.8389,-2.8439,-2.8462,-2.8502,-2.8633,-2.8657,-2.8569,-2.8758,-2.8782,-2.8851,-2.8845,-2.8887,-2.8894,-2.9035,-2.9033,-2.9032,-2.8921,0,0,0,0,0,0,-2.8069,-2.8109,-2.8328,-2.8342,-2.823,-2.8385,-2.8412,-2.8458,-2.8608,-2.8632,-2.8552,-2.8558,-2.8756,-2.8775,-2.8793,-2.8836,-2.8876,-2.8884,-2.8888,-2.9034,-2.9033,-2.9032,0,0,0,0,0,0,-2.8096,-2.8119,-2.8335,-2.8332,-2.8346,-2.838,-2.8405,-2.8478,-2.8609,-2.8519,-2.8529,-2.8553,-2.873,-2.877,-2.8785,-2.8895,-2.8868,-2.8875,-2.888,-2.8883,-2.9033,-2.9032,0,0,0,0,0,0,-2.8107,-2.8128,-2.8329,-2.834,-2.8352,-2.8509,-2.8447,-2.8606,-2.8604,-2.8511,-2.8607,-2.8608,-2.8723,-2.874,-2.8778,-2.8882,-2.8891,-2.8868,-2.8873,-2.8876,-2.8878,0,0,0,0,0,0,0,-2.8117,-2.7959,-2.8249,-2.8346,-2.8357,-2.8465,-2.8469,-2.8473,-2.8604,-2.8605,-2.8606,-2.8607,-2.8827,-2.8835,-2.8843,-2.8871,0,0,-2.8867,-2.8871,0,0,0,0,0,0,0,0,-2.7953,-2.7958,-2.8249,-2.8252,-2.8255,-2.8466,-2.8469,-2.8472,-2.8604,-2.8605,-2.8606,-2.8607,-2.8829,-2.8835,-2.8842,0,0,0,0,0,0,0,0,0,0,0,0,0,0,0,-2.825,-2.8252,0,-2.8466,-2.8469,-2.8471,-2.8605,-2.8605,-2.8606,-2.8607,-2.8831,-2.8836,-2.8841,0,0,0,0,0,0,0,0,0,0,0,0,0,0,0,0,0,0,0,0,0,0,0,0,0,0,0,0,0,0,0,0,0,0,0,0,0,0,0,0,0,0,0,0,0,0,0,0,0,0,0,0,0,0,0,0,0,0,0,0,0,0,0,0,0,0,0,0,0]}],[{"header":{"parameterUnit":"kt","parameterCategory":2,"dx":1,"dy":1,"la1":30.253999710083008,"la2":30.299108505249023,"lo1":-89.0895004272461,"lo2":-89.04439544677734,"nx":28,"ny":28,"refTime":"2022-10-10T21:00:00:Z","depth":0,"parameterNumber":2,"parameterNumberName":"V-component_of_WINDS"},"data":[4.298,4.2877,4.2852,4.2724,4.268,4.2588,4.2547,4.2491,4.244,4.2328,4.2259,4.2221,4.2159,4.2071,4.1995,4.1979,4.195,4.1937,4.1921,4.2005,4.2014,4.2024,4.2047,4.1931,4.1931,4.1839,4.1838,4.1838,4.3059,4.3014,4.2936,4.2844,4.2779,4.2778,4.2704,4.2649,4.2566,4.25,4.2429,4.2327,4.2243,4.2181,4.2096,4.2049,4.2042,4.2028,4.2031,4.2022,4.211,4.2135,4.2036,4.2036,4.2036,4.2036,4.2036,4.2036,4.3195,4.3133,4.3061,4.2976,4.2921,4.2859,4.2795,4.2748,4.2671,4.2576,4.2555,4.246,4.2387,4.2266,4.2217,4.2143,4.2153,4.2127,4.2121,4.2116,4.2116,4.2261,4.2126,4.2126,4.2127,4.2127,4.2127,0,4.3286,4.3269,4.3189,4.3104,4.3039,4.2969,4.2899,4.2859,4.2804,4.2742,4.265,4.2591,4.2476,4.2386,4.2296,4.2249,4.2237,4.2231,4.2214,4.2223,4.2248,4.2238,4.2387,4.2234,4.2234,4.2235,4.2235,4.2236,4.3425,4.3352,4.3259,4.3208,4.3161,4.3077,4.3021,4.2978,4.292,4.2827,4.2773,4.2681,4.2604,4.2459,4.24,4.2313,4.2305,4.2252,4.2291,4.2308,4.2308,4.2313,4.2308,4.2244,4.2243,4.2242,4.2241,0,4.3507,4.3457,4.3334,4.3246,4.3222,4.3148,4.3073,4.3007,4.2964,4.2868,4.2843,4.2775,4.2683,4.2631,4.2513,4.249,4.2376,4.2369,4.2404,4.24,4.2349,4.2356,4.2184,4.2161,4.2278,4.2277,4.2276,0,4.3605,4.3509,4.3442,4.3372,4.3267,4.3223,4.3121,4.3073,4.3004,4.2927,4.2904,4.2833,4.2776,4.2697,4.2661,4.2557,4.2533,4.2509,4.2501,4.2511,4.2515,4.2478,4.2484,4.2479,4.248,4.2481,4.2482,0,4.3738,4.3585,4.3473,4.343,4.3321,4.3269,4.3222,4.3142,4.3085,4.3003,4.2966,4.2872,4.2821,4.2751,4.2704,4.2734,4.2574,4.2604,4.2549,4.2551,4.2514,4.2517,4.238,4.2483,4.2483,4.2483,4.2484,0,4.3807,4.3724,4.3566,4.3477,4.3437,4.3361,4.3266,4.3188,4.3105,4.3077,4.301,4.2986,4.2886,4.2923,4.2786,4.2839,4.2792,4.2758,4.2753,4.2739,4.278,4.2712,4.2586,4.2571,4.2732,4.2734,4.2736,0,4.3977,4.3801,4.3759,4.3608,4.3519,4.35,4.3414,4.3339,4.3293,4.3211,4.316,4.3065,4.3079,4.3042,4.2982,4.2924,4.2856,4.2932,4.2818,4.2815,4.2844,4.2727,4.2721,4.262,4.2761,4.2759,4.2757,0,4.41,4.3964,4.3939,4.3888,4.3778,4.37,4.3601,4.3496,4.3445,4.3358,4.3276,4.3138,4.3145,4.308,4.3048,4.2988,4.2901,4.3001,4.2998,4.2988,4.2767,4.2765,4.2747,4.2894,4.289,4.2888,4.2777,0,4.4225,4.4125,4.4055,4.3935,4.3866,4.3764,4.3703,4.3639,4.3617,4.3567,4.3441,4.3358,4.3247,4.321,4.3183,4.3061,4.3072,4.3078,4.3106,4.3029,4.2991,4.2975,4.3169,4.3169,4.317,4.317,0,0,4.4401,4.4255,4.4206,4.4105,4.4044,4.4019,4.3917,4.3853,4.3723,4.3682,4.3698,4.349,4.3419,4.3272,4.3243,4.3195,4.3169,4.3195,4.3065,4.3054,4.3043,4.3004,4.2988,4.317,4.3171,4.3171,4.3171,0,4.4432,4.4361,4.4258,4.4191,4.4088,4.4039,4.4015,4.3907,4.3869,4.3741,4.372,4.3635,4.3464,4.3395,4.3338,4.3213,4.32,4.3183,4.3139,4.3071,4.3059,4.3049,4.3008,4.2994,4.3172,4.3172,4.3172,0,4.4544,4.4465,4.4407,4.426,4.4191,4.4095,4.4112,4.4007,4.3936,4.3907,4.3779,4.3723,4.3621,4.3487,4.3423,4.3435,4.3233,4.3281,4.3277,4.3268,4.3199,4.3184,4.3172,4.3339,4.334,4.334,0,0,4.4579,4.4483,4.438,4.4261,4.422,4.4143,4.4083,4.4052,4.396,4.3924,4.3849,4.3761,4.3663,4.3598,4.3501,4.3361,4.3337,4.3305,4.3297,4.329,4.3278,4.3207,4.3193,4.3344,4.3344,4.3344,0,0,4.4594,4.447,4.4461,4.4316,4.4232,4.4119,4.4049,4.4035,4.394,4.3944,4.3882,4.3856,4.3728,4.3671,4.3723,4.351,4.3539,4.3525,4.3551,4.354,4.3532,4.3548,4.3724,0,0,0,0,0,4.4592,4.4487,4.448,4.4446,4.4255,4.4124,4.4099,4.4046,4.4071,4.4018,4.3954,4.3942,4.3688,4.3733,4.3699,4.364,4.3386,4.3378,4.3371,4.3371,4.3361,4.3352,0,0,0,0,0,0,4.4578,4.4536,4.4483,4.4367,4.4323,4.4127,4.4157,4.414,4.4075,4.4075,4.3955,4.3938,4.3889,4.3746,4.3717,4.3662,4.3734,4.3383,4.3377,4.3371,4.3368,4.3359,4.3351,0,0,0,0,0,4.4566,4.4532,4.424,4.4367,4.433,4.4236,4.416,4.4146,4.4095,4.3992,4.3975,4.4061,4.3889,4.3861,4.3728,4.3677,4.3753,4.3743,4.3379,4.3374,4.3369,4.3363,0,0,0,0,0,0,4.4558,4.4518,4.4232,4.4218,4.4402,4.4246,4.4219,4.4152,4.4015,4.3997,4.4096,4.4097,4.3888,4.3866,4.3844,4.3685,4.377,4.3759,4.3752,4.3375,4.3371,4.3368,0,0,0,0,0,0,4.4536,4.4507,4.4225,4.4271,4.4262,4.4255,4.4231,4.4109,4.4014,4.4126,4.4123,4.4098,4.392,4.3869,4.3852,4.3663,4.3782,4.3772,4.3765,4.376,4.3372,4.3369,0,0,0,0,0,0,4.4523,4.4498,4.4274,4.4267,4.426,4.4105,4.4146,4.3953,4.4055,4.4132,4.4062,4.4066,4.3923,4.3905,4.3858,4.3676,4.3666,4.3782,4.3775,4.377,4.3766,0,0,0,0,0,0,0,4.4512,4.4691,4.4311,4.4264,4.4258,4.4095,4.4091,4.4087,4.4056,4.4059,4.4062,4.4064,4.3842,4.3831,4.3819,4.3687,0,0,4.3783,4.3778,0,0,0,0,0,0,0,0,4.4701,4.4694,4.4311,4.4308,4.4305,4.4094,4.4091,4.4088,4.4056,4.4059,4.4061,4.4063,4.3839,4.383,4.382,0,0,0,0,0,0,0,0,0,0,0,0,0,0,0,4.4311,4.4308,0,4.4094,4.4091,4.4089,4.4057,4.4059,4.4061,4.4062,4.3837,4.3829,4.3821,0,0,0,0,0,0,0,0,0,0,0,0,0,0,0,0,0,0,0,0,0,0,0,0,0,0,0,0,0,0,0,0,0,0,0,0,0,0,0,0,0,0,0,0,0,0,0,0,0,0,0,0,0,0,0,0,0,0,0,0,0,0,0,0,0,0,0,0,0]}]]]